NSS-11

Last updated on Sun Jun 21 2026 00:03:03 GMT+0000 (Coordinated Universal Time)

1 26554U 00059A 26171.35556845 .00000020 00000+0 00000+0 0 9994 2 26554 2.1358 81.3554 0002909 358.9834 132.2266 1.00272335 41324
UTC large
Height (km)
Speed (km/s)
/
Latitude / Longitude
Inclination (degrees)
Orbital Period (minutes)
Azimuth
Elevation
Range (km)
Doppler Factor

Next 0 passes for location: London (51.5072 / 0.1276)

No passes found over London.
NSS-11